Location: Frankfurt am Main
(50.1109°N, 8.6821°E)
Time: 22:37:08
(UTC+01:00)

ISS - Pass Details

Date: 24 January 2020
Orbit: 415 x 423 km, 51.6° (Epoch: 25 February)

Event Time Altitude Azimuth Distance (km) Brightness Sun altitude
Rises 19:55:45 0° 258° (WSW) 2,376 1.3 -27.1°
Reaches altitude 10° 19:57:51 10° 260° (W) 1,511 0.0 -27.4°
Enters shadow 19:59:12 22° 262° (W) 973 -1.2 -27.7°
